Manitowoc, WI

11:39 PM CDT on July 20, 2017 (GMT -0500)
Manitowoc County

Weather History for KMTW - October, 2013

Change the Weather History Date:

Thursday, October 3, 2013

  Actual Average Record
Temperature  
Mean Temperature 60 °F -  
Max Temperature 72 °F 63 °F 80 °F (1953)
Min Temperature 50 °F 45 °F 30 °F (1961)
Degree Days  
Heating Degree Days 4    
Growing Degree Days 10 (Base 50)    
Moisture  
Dew Point 57 °F    
Average Humidity 88    
Maximum Humidity 100    
Minimum Humidity 73    
Precipitation  
Precipitation 0.19 in - - ()
Sea Level Pressure  
Sea Level Pressure 29.97 in    
Wind  
Wind Speed 4 mph (ENE)    
Max Wind Speed 13 mph    
Max Gust Speed -    
Visibility 8 miles    
Events Rain , Thunderstorm    
Averages and records for this station are not official NWS values.
T = Trace of Precipitation, MM = Missing Value Source: NWS Daily Summary

Daily Weather History Graph

Daily Weather History Graph

Search for Another Location

Airport or City:

Trip Planner

Search our weather history database for the weather conditions in past years. The results will help you decide how hot, cold, wet, or windy it might be!

Date:

Astronomy

Oct. 03, 2013 Rise Set
Actual Time 6:51 AM CDT 6:27 PM CDT
Civil Twilight 6:22 AM CDT 6:56 PM CDT
Nautical Twilight 5:48 AM CDT 7:29 PM CDT
Astronomical Twilight 5:14 AM CDT 8:03 PM CDT
Moon 5:22 AM CDT (10/3) 5:36 PM CDT (10/3)
Length of Visible Light 12h 33m
Length of Day
11h 36m
Waning Crescent, 2% of the Moon is Illuminated
Oct 3
Waning Crescent
Oct 4
New
Oct 11
First Quarter
Oct 18
Full
Oct 26
Last Quarter

Hourly Weather History & Observations

Time (CDT) Temp. Dew Point Humidity Pressure Visibility Wind Dir Wind Speed Gust Speed Precip Events Conditions
12:56 AM 50.0 °F 48.0 °F 93% 30.05 in 10.0 mi Calm Calm - N/A   Clear
1:56 AM 51.1 °F 48.9 °F 92% 30.06 in 10.0 mi Calm Calm - N/A   Overcast
2:56 AM 55.0 °F 51.1 °F 86% 30.03 in 10.0 mi Calm Calm - N/A   Overcast
3:56 AM 55.9 °F 51.1 °F 84% 30.03 in 10.0 mi SSE 5.8 mph - N/A   Clear
4:56 AM 55.9 °F 52.0 °F 87% 30.01 in 10.0 mi ESE 4.6 mph - N/A   Partly Cloudy
5:56 AM 54.0 °F 51.1 °F 90% 30.00 in 10.0 mi NNE 3.5 mph - N/A   Clear
6:56 AM 53.1 °F 51.1 °F 93% 30.00 in 10.0 mi Calm Calm - N/A   Partly Cloudy
7:18 AM 59.0 °F 55.4 °F 88% 29.95 in 10.0 mi WNW 5.8 mph - N/A   Mostly Cloudy
7:56 AM 60.1 °F 55.9 °F 86% 30.01 in 10.0 mi SE 6.9 mph - N/A   Overcast
8:21 AM 60.8 °F 55.4 °F 82% 29.93 in 10.0 mi ESE 5.8 mph - N/A   Overcast
8:56 AM 62.1 °F 57.0 °F 84% 29.98 in 10.0 mi SSE 5.8 mph - N/A   Overcast
9:56 AM 64.0 °F 61.0 °F 90% 29.98 in 6.0 mi WSW 3.5 mph - N/A   Overcast
10:56 AM 66.0 °F 62.1 °F 87% 29.99 in 5.0 mi SW 5.8 mph - N/A   Overcast
11:56 AM 68.0 °F 63.0 °F 84% 29.98 in 6.0 mi West 5.8 mph - N/A   Haze
12:15 PM 69.8 °F 62.6 °F 78% 29.92 in 7.0 mi NW 5.8 mph - N/A   Mostly Cloudy
12:54 PM 71.6 °F 62.6 °F 73% 29.91 in 10.0 mi NW 5.8 mph - N/A   Scattered Clouds
12:56 PM 71.1 °F 62.1 °F 73% 29.96 in 9.0 mi NW 5.8 mph - N/A   Scattered Clouds
1:51 PM 60.8 °F 57.2 °F 88% 29.90 in 5.0 mi ESE 12.7 mph - N/A   Mostly Cloudy
1:56 PM 60.1 °F 57.9 °F 93% 29.97 in 4.0 mi ESE 10.4 mph - N/A   Mostly Cloudy
2:08 PM 60.8 °F 59.0 °F 94% 29.90 in 5.0 mi ESE 10.4 mph - N/A   Mist
2:56 PM 66.0 °F 61.0 °F 84% 29.95 in 7.0 mi ENE 5.8 mph - N/A   Unknown
3:56 PM 66.9 °F 61.0 °F 81% 29.95 in 7.0 mi Variable 5.8 mph - N/A   Unknown
4:56 PM 64.9 °F 60.1 °F 84% 29.95 in 7.0 mi Variable 5.8 mph - N/A   Unknown
5:56 PM 62.1 °F 57.0 °F 84% 29.97 in 10.0 mi NE 10.4 mph - N/A   Unknown
6:56 PM 61.0 °F 57.9 °F 90% 29.99 in 10.0 mi NNE 6.9 mph - N/A   Unknown
7:56 PM 60.1 °F 55.9 °F 86% 29.99 in 10.0 mi NE 4.6 mph - N/A   Unknown
8:56 PM 57.9 °F 55.9 °F 93% 29.97 in 10.0 mi ENE 5.8 mph - 0.13 in Rain Light Rain
9:36 PM 57.2 °F 55.4 °F 94% 29.92 in 8.0 mi Variable 4.6 mph - 0.04 in Rain , Thunderstorm Light Rain
9:56 PM 57.9 °F 55.9 °F 93% 29.97 in 7.0 mi Variable 4.6 mph - 0.06 in Rain , Thunderstorm Light Thunderstorms and Rain
10:39 PM 57.2 °F 57.2 °F 100% 29.92 in 10.0 mi Calm Calm - 0.04 in   Unknown
11:30 PM 57.2 °F 57.2 °F 100% 29.90 in 6.0 mi North 8.1 mph - N/A   Mist
11:56 PM 57.9 °F 57.0 °F 97% 29.96 in 5.0 mi Variable 4.6 mph - N/A   Mist